Location: Marcé
(47.5801°N, 0.3280°W)
Time: 07:47:27
(UTC+01:00)

Vanguard 1 - Pass Details

Date: 09 December 2021
Orbit: 652 x 3830 km, 34.2° (Epoch: 16 January)

Event Time Altitude Azimuth Distance (km) Brightness Sun altitude
Exits shadow 03:41:38 49° 173° (S) 4,154 12.9 -48.4°
Drops below altitude 10° 03:55:47 10° 127° (SE) 5,545 14.1 -46.2°
Sets 03:59:27 0° 122° (ESE) 6,205 14.6 -45.6°
